{"data":{"norad_id":65981,"epoch":"2026-05-25T05:23:28.603968Z","epoch_age_seconds":66051,"freshness":"FRESH","line1":"1 65981U 25230H   26145.22463662 -.00004317  00000+0 -39542-2 0  9991","line2":"2 65981  81.3009 232.9836 0001016 234.9410 125.1650 13.83201611 30634","mean_motion":13.83201611,"eccentricity":0.0001016,"inclination_deg":81.3009,"raan_deg":232.9836,"arg_perigee_deg":234.941,"mean_anomaly_deg":125.165,"bstar":-0.0039542,"rev_number":3063,"period_min":104.10629864427,"perigee_km":951.80813671025,"apogee_km":953.29773290501,"semimajor_km":7330.6899348076,"source":"CELESTRAK","updated_at":"2026-05-25T13:38:05.878173Z"}}